sat.trackr.live / text

‹ back to catalog

STARLINK-4732

NORAD 53870 · 2022-114BE

PAYLOAD ACTIVE UNKNOWN

§ Identity

Operator
Country
US
Launch date
2022-09-19
Launch site
AFETR
Launch vehicle
Mass (kg)
RCS (m²)

Purposes: comms

External: N2YO · Heavens-Above · Gunter

§ Orbital elements

Epoch: 2026-05-25T01:36:23.585760Z

Period
95.44 min
Inclination
53.2142°
Eccentricity
0.0001295
Mean motion
15.08835387 rev/d
Perigee alt
538.9 km
Apogee alt
540.7 km
Semi-major
6,917.9 km
B*
3.7541e-5
RAAN
281.1809°
Arg perigee
86.3143°
Mean anomaly
273.7998°
Rev number
20,492

§ Raw data

STARLINK-47321 53870U 22114BE  26145.06693965  .00000310  00000+0  37541-4 0  99922 53870  53.2142 281.1809 0001295  86.3143 273.7998 15.08835387204923

JSON: /api/v1/satellites/53870 · /tle

For live sub-satellite position, see the globe view (requires WebGL).

§ Visibility from observer

Set your observer location to see the next 7 days of passes ≥ 10°. The values pass through the URL so the page stays shareable.

No JS? Fill the form by hand. The geolocation button needs JavaScript.